Tracking 30995 objects as of 7-Jul-2025
HD Live streaming from Space Station
objects crossing your sky now

ATLAS 5 CENTAUR DEB

Track ATLAS 5 CENTAUR DEB now!


NORAD ID: 44694
Int'l Code: 2018-079BG
Perigee: 8,769.2 km
Apogee: 36,131.5 km
Inclination: 13.2 °
Period: 811.6 minutes
Semi major axis: 28821 km
RCS: Unknown
Launch date: October 17, 2018
Source: United States (US)
Launch site: AIR FORCE EASTERN TEST RANGE (AFETR)

Note: This is SATELLITE DEBRIS
Your satellite tracking list
Your tracking list is empty




NASA's NSSDC Master Catalog

Two Line Element Set (TLE):
1 44694U 18079BG  25186.70352787 -.00000142  00000-0  00000-0 0  9991
2 44694  13.2173  67.3910 4746879 243.8927  60.2176  1.77431777 40417
Source of the keplerian elements: AFSPC